(116851) = 2000 AX110 = 2004 FJ64

Discovered at Socorro on 2004-03-19 by LINEAR.

Orbit

Orbit type: Main Belt

Note: WebGL enabled browser required.

epoch2024-03-31.0
epoch JD2460400.5
perihelion date2024-01-28.45266
perihelion JD2460337.95266
argument of perihelion (°)290.62817
ascending node (°)157.21196
inclination (°)5.77764
eccentricity0.1391071
perihelion distance (AU)1.9671620
Tisserand w.r.t. Jupiter3.6
ΔV w.r.t. Earth (km/sec)8.9
semimajor axis (AU)2.2850252
mean anomaly (°)17.84745
mean daily motion (°/day)0.28534310
aphelion distance (AU)2.603
period (years)3.45
P-vector [x]0.03584643
P-vector [y]0.95028492
P-vector [z]0.30931150
Q-vector [x]-0.99859638
Q-vector [y]0.02198437
Q-vector [z]0.04818670
absolute magnitude16.83
phase slope0.15
uncertainty0
referenceMPEC 2024-E23
observations used834
oppositions14
arc length (days)8823
first opposition used2000
last opposition used2024
residual rms (arc-secs)0.69
perturbers coarse indicatorM-v
perturbers precise indicator003Ek
first observation date used2000-01-05.0
last observation date used2024-03-02.0
computer nameMPCLINUX
JD of orbit computation2456937.222622
perihelion JD uncertainty (days)6.5721E-05
argument of perihelion uncertainty (°)3.8347E-05
ascending node uncertainty (°)3.1599E-05
inclination uncertainty (°)4.6191E-06
eccentricity uncertainty 3.2226E-08
perihelion distance uncertainty (AU)6.9631E-08
Minimum Orbit Intersection Distances (in AU)
for orbit epoch: 2460400.5, reference: E2024-FA5
Mercury1.66404
Venus1.2536
Earth0.9927
Mars0.40554
Jupiter2.58612
Saturn7.08198
Uranus16.1892
Neptune27.6271

Observations

853 total observations over interval: 2000 01 05.29194 – 2024 03 02.298936
These data are available for download (format description).

Date (UT) J2000 RA J2000 Dec Magn Location Ref
2000 01 05.29194 07 06 11.69 +13 27 55.1 19.0   704 – Lincoln Laboratory ETS, New Mexico MPS 9346
2000 01 05.30656 07 06 10.82 +13 27 58.7 19.0   704 – Lincoln Laboratory ETS, New Mexico MPS 9346
2000 01 05.33579 07 06 08.94 +13 28 05.5 19.4   704 – Lincoln Laboratory ETS, New Mexico MPS 9346
2000 01 05.35039 07 06 07.93 +13 28 09.6 18.9   704 – Lincoln Laboratory ETS, New Mexico MPS 9346
2000 01 07.29926 07 04 07.24 +13 37 01.0 18.7   704 – Lincoln Laboratory ETS, New Mexico MPS 9346
2000 01 07.31404 07 04 06.28 +13 37 05.9 19.1   704 – Lincoln Laboratory ETS, New Mexico MPS 9346
2000 01 07.32878 07 04 05.39 +13 37 09.8 19.0   704 – Lincoln Laboratory ETS, New Mexico MPS 9346
2000 01 07.34348 07 04 04.37 +13 37 14.0 19.2   704 – Lincoln Laboratory ETS, New Mexico MPS 9346
2000 01 07.35812 07 04 03.45 +13 37 17.2 19.5   704 – Lincoln Laboratory ETS, New Mexico MPS 9346
2002 09 30.27838 00 58 33.74 -00 03 00.2 18.5   704 – Lincoln Laboratory ETS, New Mexico MPS 110752
2002 09 30.32118 00 58 31.44 -00 03 23.1 18.6   704 – Lincoln Laboratory ETS, New Mexico MPS 110752
2002 09 30.33548 00 58 30.71 -00 03 31.1 18.5   704 – Lincoln Laboratory ETS, New Mexico MPS 110752
2002 10 03.25064 00 55 59.86 -00 29 53.2 18.3   704 – Lincoln Laboratory ETS, New Mexico MPS 110752
2002 10 03.26553 00 55 59.10 -00 30 01.3 18.8   704 – Lincoln Laboratory ETS, New Mexico MPS 110752
2002 10 03.28060 00 55 58.25 -00 30 09.2 18.6   704 – Lincoln Laboratory ETS, New Mexico MPS 110752
2002 10 03.29558 00 55 57.40 -00 30 17.6 19.3   704 – Lincoln Laboratory ETS, New Mexico MPS 110752
2002 10 03.31045 00 55 56.61 -00 30 26.0 18.9   704 – Lincoln Laboratory ETS, New Mexico MPS 110752
2002 10 05.346990 00 54 08.556 -00 48 42.43 19.19 V 645 – Apache Point-Sloan Digital Sky Survey MPS 110752
2002 10 05.350462 00 54 08.361 -00 48 44.23 20.04   645 – Apache Point-Sloan Digital Sky Survey MPS 110752
2002 10 08.53190 00 51 17.65 -01 16 46.2 21.1   608 – Haleakala-AMOS MPS 110752
2002 10 08.54267 00 51 17.04 -01 16 52.2 20.6   608 – Haleakala-AMOS MPS 110752
2002 10 08.55321 00 51 16.46 -01 16 56.9 20.8   608 – Haleakala-AMOS MPS 110752
2002 10 11.24310 00 48 52.71 -01 39 56.0 19.0   704 – Lincoln Laboratory ETS, New Mexico MPS 110752
2002 10 11.25812 00 48 51.92 -01 40 02.7 19.4   704 – Lincoln Laboratory ETS, New Mexico MPS 110753
2002 10 11.27304 00 48 51.15 -01 40 11.2 19.2   704 – Lincoln Laboratory ETS, New Mexico MPS 110753
2002 10 11.28812 00 48 50.25 -01 40 18.3 19.0   704 – Lincoln Laboratory ETS, New Mexico MPS 110753
2002 10 11.30310 00 48 49.43 -01 40 25.1 19.4   704 – Lincoln Laboratory ETS, New Mexico MPS 110753
2004 03 19.38948 13 40 52.81 -04 16 33.0 19.7   704 – Lincoln Laboratory ETS, New Mexico MPS 103989
2004 03 19.40010 13 40 52.32 -04 16 27.9 20.3   704 – Lincoln Laboratory ETS, New Mexico MPS 103989
2004 03 19.41127 13 40 51.88 -04 16 22.7 20.2   704 – Lincoln Laboratory ETS, New Mexico MPS 103989
2004 03 19.42249 13 40 51.37 -04 16 17.8 19.7   704 – Lincoln Laboratory ETS, New Mexico MPS 103989
2004 03 19.43328 13 40 50.87 -04 16 12.7 20.0   704 – Lincoln Laboratory ETS, New Mexico MPS 103989
2004 03 22.39510 13 38 46.46 -03 53 23.4 19.5   704 – Lincoln Laboratory ETS, New Mexico MPS 103989
2004 03 22.40588 13 38 45.95 -03 53 18.5 19.9   704 – Lincoln Laboratory ETS, New Mexico MPS 103989
2004 03 22.42784 13 38 44.99 -03 53 07.1 20.1   704 – Lincoln Laboratory ETS, New Mexico MPS 103989
2004 03 22.43866 13 38 44.48 -03 53 02.1 20.1   704 – Lincoln Laboratory ETS, New Mexico MPS 103989
2004 03 24.33780 13 37 18.86 -03 38 02.5 19.6 R 699 – Lowell Observatory-LONEOS MPS 110112
2004 03 24.35813 13 37 17.86 -03 37 52.9   699 – Lowell Observatory-LONEOS MPS 110112
2004 03 24.37850 13 37 16.74 -03 37 44.7   699 – Lowell Observatory-LONEOS MPS 110112
2004 03 24.39884 13 37 15.92 -03 37 33.2   699 – Lowell Observatory-LONEOS MPS 110112
2004 04 11.30921 13 21 26.30 -01 14 25.3 19.7   644 – Palomar Mountain/NEAT MPS 110112
2004 04 11.33002 13 21 25.08 -01 14 15.6 19.5   644 – Palomar Mountain/NEAT MPS 110112
2004 04 11.36458 13 21 23.09 -01 14 00.0 20.0   644 – Palomar Mountain/NEAT MPS 110112
2004 04 20.31669 13 13 16.95 -00 11 36.4 20.0   704 – Lincoln Laboratory ETS, New Mexico MPS 110112
2004 04 20.32784 13 13 16.25 -00 11 29.8 20.5   704 – Lincoln Laboratory ETS, New Mexico MPS 110112
2004 04 20.33891 13 13 15.68 -00 11 27.2 20.3   704 – Lincoln Laboratory ETS, New Mexico MPS 110112
2004 04 20.34998 13 13 15.10 -00 11 22.3 20.2   704 – Lincoln Laboratory ETS, New Mexico MPS 110112
2005 07 01.36595 21 10 14.08 -10 59 28.6 20.8 V 691 – Steward Observatory, Kitt Peak-Spacewatch MPS 137058
2005 07 01.38326 21 10 13.57 -10 59 31.7 20.9 V 691 – Steward Observatory, Kitt Peak-Spacewatch MPS 137058
2005 07 01.40063 21 10 13.06 -10 59 33.7 21.0 V 691 – Steward Observatory, Kitt Peak-Spacewatch MPS 137058
2005 07 05.41409 21 08 09.61 -11 10 20.7 21.1   644 – Palomar Mountain/NEAT MPS 137460
2005 07 05.42551 21 08 09.16 -11 10 23.1 20.8   644 – Palomar Mountain/NEAT MPS 137460
2005 07 05.43564 21 08 08.83 -11 10 25.2 21.1   644 – Palomar Mountain/NEAT MPS 137460
2005 07 15.34545 21 01 24.51 -11 47 36.3 20.7 V 691 – Steward Observatory, Kitt Peak-Spacewatch MPS 137972
2005 07 15.36275 21 01 23.66 -11 47 41.2 20.5 V 691 – Steward Observatory, Kitt Peak-Spacewatch MPS 137972
2005 07 15.38012 21 01 22.78 -11 47 45.5 20.8 V 691 – Steward Observatory, Kitt Peak-Spacewatch MPS 137972
2005 07 27.22409 20 50 56.55 -12 48 34.9 19.9   644 – Palomar Mountain/NEAT MPS 138637
2005 07 27.25756 20 50 54.58 -12 48 46.5 20.0   644 – Palomar Mountain/NEAT MPS 138637
2005 07 27.29834 20 50 52.14 -12 49 00.7 19.8   644 – Palomar Mountain/NEAT MPS 138637
2005 08 05.20635 20 42 09.25 -13 42 16.6 19.9   644 – Palomar Mountain/NEAT MPS 139336
2005 08 05.23295 20 42 07.63 -13 42 26.5 19.7   644 – Palomar Mountain/NEAT MPS 139336
2005 08 05.25929 20 42 06.03 -13 42 36.4 20.1   644 – Palomar Mountain/NEAT MPS 139336
2006 12 24.38481 08 47 11.18 +10 31 53.7 18.9 V 703 – Catalina Sky Survey MPS 195146
2006 12 24.39300 08 47 11.04 +10 31 54.0 18.8 V 703 – Catalina Sky Survey MPS 195146
2006 12 24.40125 08 47 10.75 +10 31 54.1 19.7 V 703 – Catalina Sky Survey MPS 195146
2006 12 24.40951 08 47 10.53 +10 31 55.2 20.0 V 703 – Catalina Sky Survey MPS 195146
2007 01 08.44075 08 38 43.80 +11 21 40.0 20.4 V 703 – Catalina Sky Survey MPS 196192
2007 01 08.44618 08 38 43.47 +11 21 44.0 19.7 V 703 – Catalina Sky Survey MPS 196192
2007 01 08.45164 08 38 43.22 +11 21 45.6 18.7 V 703 – Catalina Sky Survey MPS 196192
2007 01 08.45711 08 38 42.90 +11 21 44.9 19.4 V 703 – Catalina Sky Survey MPS 196192
2007 01 15.30135 08 32 50.61 +11 59 58.6 18.4 R 683 – Goodricke-Pigott Observatory, Tucson MPS 196881
2007 01 15.31503 08 32 49.73 +12 00 03.3   683 – Goodricke-Pigott Observatory, Tucson MPS 196881
2007 01 15.35898 08 32 47.32 +12 00 17.5 18.8 R 699 – Lowell Observatory-LONEOS MPS 196881
2007 01 15.38092 08 32 46.03 +12 00 25.6   699 – Lowell Observatory-LONEOS MPS 196881
2007 01 15.40289 08 32 44.80 +12 00 33.4   699 – Lowell Observatory-LONEOS MPS 196881
2007 01 15.42484 08 32 43.47 +12 00 41.6   699 – Lowell Observatory-LONEOS MPS 196881
2007 01 17.34263 08 30 55.70 +12 12 50.7 18.7 R 644 – Palomar Mountain/NEAT MPS 197871
2007 01 17.35581 08 30 54.90 +12 12 56.0 18.6 R 644 – Palomar Mountain/NEAT MPS 197871
2007 01 17.36313 08 30 54.46 +12 12 58.6 18.5 R 644 – Palomar Mountain/NEAT MPS 197871
2007 01 17.37627 08 30 53.67 +12 13 04.0 18.8 R 644 – Palomar Mountain/NEAT MPS 197871
2007 01 17.38365 08 30 53.23 +12 13 06.7 18.8 R 644 – Palomar Mountain/NEAT MPS 197871
2007 01 17.39680 08 30 52.44 +12 13 11.9 18.7 R 644 – Palomar Mountain/NEAT MPS 197871
2007 01 25.25147 08 23 10.42 +13 07 42.4 18.5 V 703 – Catalina Sky Survey MPS 197871
2007 01 25.26118 08 23 09.78 +13 07 45.6 18.8 V 703 – Catalina Sky Survey MPS 197871
2007 01 25.27093 08 23 09.16 +13 07 49.3 18.0 V 703 – Catalina Sky Survey MPS 197871
2007 01 25.28065 08 23 08.55 +13 07 54.4 18.9 V 703 – Catalina Sky Survey MPS 197871
2007 01 28.31613 08 20 09.13 +13 30 19.0 19.0 V G96 – Mt. Lemmon Survey MPS 198555
